Miscellaneous Local Product
Issued by NWS North Platte, NE

Home | Current Version | Previous Version | Graphics & Text | Print | Product List | Glossary On
Versions: 1 2 3 4 5 6 7 8 9 10 11 12 13 14 15 16 17 18 19 20 21 22 23 24 25 26 27 28 29 30 31 32 33 34 35 36 37 38 39 40 41 42 43 44 45 46 47 48 49 50
000
AXUS43 KLBF 191510
MISLBF


WESTERN AND NORTH CENTRAL NEBRASKA HOURLY WEATHER ROUNDUP
NATIONAL WEATHER SERVICE NORTH PLATTE NE
1000 AM CDT SUN OCT 19 2014

***STATIONS NOT REPORTING VARIABLES SUCH AS SKY/WEATHER OR
PRESSURE ARE PROVIDED BY THE NEBRASKA DEPARTMENT OF
ROADS...RAWS...AND APRS NETWORKS...AND ARE NOT UNDER
NATIONAL WEATHER SERVICE QUALITY CONTROL***

...OBSERVATIONS IN AND NEAR THE EASTERN PANHANDLE OF NEBRASKA...

CITY           SKY/WX    TMP DP  RH WIND       PRES   REMARKS
PINE RIDGE     SUNNY     47  41  80 SW3       30.06R
CHADRON        SUNNY     48  42  80 SW5       30.08R
ALLIANCE       SUNNY     46  40  79 NW3       30.07R
SIDNEY         SUNNY     51  38  60 NW7       30.09R
WHITECLAY        N/A     46  39  77 CALM        N/A
RUSHVILLE        N/A     50  41  71 W3          N/A
CRESCENT LAKE    N/A     47  42  84 NW3         N/A
LISCO            N/A     43  37  79 W8          N/A
BIG SPRINGS      N/A     37  35  94 CALM        N/A
LEWELLEN         N/A     43  39  86 W9          N/A
$$

...OBSERVATIONS IN NORTH CENTRAL NEBRASKA...

CITY           SKY/WX    TMP DP  RH WIND       PRES   REMARKS
VALENTINE      SUNNY     53  42  66 W9        30.01R
THEDFORD       SUNNY     52  43  70 W9        30.02S
AINSWORTH      SUNNY     53  42  66 W7        29.99S
O`NEILL        SUNNY     54  46  74 SW10      29.98F
ORD            SUNNY     51  43  74 S13       30.01S
BROKEN BOW     MOSUNNY   51  43  74 SW6       30.02S
BROWNLEE         N/A     53  45  74 W5          N/A
SPRINGVIEW       N/A     50  43  77 W3          N/A
BREWSTER         N/A     52  42  69 W10         N/A
ROSE             N/A     53  46  77 S10         N/A
NEWPORT          N/A     55  44  66 W10         N/A
SARGENT          N/A     53  44  73 W6          N/A
COMSTOCK         N/A     55  46  72 SW9         N/A
CHAMBERS         N/A     54  43  67 W8          N/A
$$

...OBSERVATIONS IN SOUTHWEST NEBRASKA AND FAR NORTHEAST COLORADO...

CITY           SKY/WX    TMP DP  RH WIND       PRES   REMARKS
WRAY           FAIR      51  44  77 W5        30.05S
HOLYOKE        FAIR      54  45  71 NW8       30.05R
IMPERIAL       SUNNY     47  40  76 NW5       30.04R
OGALLALA       SUNNY     47  42  85 CALM      30.04S
NORTH PLATTE   SUNNY     49  41  74 SW5       30.04R
MCCOOK         SUNNY     49  42  77 S3        30.05R
LEXINGTON      SUNNY     54  45  72 SW12      30.04S
PAXTON           N/A     35  33  91 CALM        N/A
SUTHERLAND       N/A     42  37  83 CALM        N/A
BRADY            N/A     48  41  78 CALM        N/A
GOTHENBURG       N/A     46  39  76 CALM        N/A
CALLAWAY         N/A     43  41  94 S6          N/A
$$

...SOME WEATHER OBSERVATIONS FROM AROUND THE REGION...

CITY           SKY/WX    TMP DP  RH WIND       PRES   REMARKS
DENVER         MOSUNNY   57  35  43 SW8       30.13R
LARAMIE        SUNNY     44  29  55 S9        30.22R
CHEYENNE       SUNNY     55  30  38 W10       30.16R
SCOTTSBLUFF    SUNNY     47  40  76 NW10      30.09R
RAPID CITY     SUNNY     58  39  49 W6        30.05R
PIERRE         SUNNY     53  43  68 W8        29.95R
WINNER         FAIR      60  43  53 W9        29.98R
SIOUX FALLS    MOSUNNY   51  42  71 SW8       29.94F
OMAHA          PTSUNNY   52  43  71 S10       30.09S
GRAND ISLAND   SUNNY     55  43  63 SW17G23   30.04S
KANSAS CITY    PTSUNNY   52  47  83 S9        30.17S
WICHITA        MOSUNNY   56  46  69 S12       30.16S
HAYS           SUNNY     55  43  62 S16       30.08F
LIBERAL        SUNNY     57  43  58 S20G26    30.11S
GOODLAND       SUNNY     51  44  77 W7        30.05S
$$



USA.gov is the U.S. government's official web portal to all federal, state and local government web resources and services.